sat.trackr.live / text

‹ back to catalog

STARLINK-3394

NORAD 51118 · 2022-005Q

PAYLOAD ACTIVE UNKNOWN

§ Identity

Operator
Country
US
Launch date
2022-01-19
Launch site
AFETR
Launch vehicle
Mass (kg)
RCS (m²)

Purposes: comms

External: N2YO · Heavens-Above · Gunter

§ Orbital elements

Epoch: 2026-05-24T20:38:58.835616Z

Period
95.44 min
Inclination
53.2133°
Eccentricity
0.0001257
Mean motion
15.08851774 rev/d
Perigee alt
538.8 km
Apogee alt
540.6 km
Semi-major
6,917.8 km
B*
-1.3989e-4
RAAN
307.1759°
Arg perigee
88.7016°
Mean anomaly
271.4120°
Rev number
24,037

§ Raw data

STARLINK-33941 51118U 22005Q   26144.86040319 -.00002514  00000+0 -13989-3 0  99992 51118  53.2133 307.1759 0001257  88.7016 271.4120 15.08851774240371

JSON: /api/v1/satellites/51118 · /tle

For live sub-satellite position, see the globe view (requires WebGL).

§ Visibility from observer

Set your observer location to see the next 7 days of passes ≥ 10°. The values pass through the URL so the page stays shareable.

No JS? Fill the form by hand. The geolocation button needs JavaScript.